Flag for U.S.A. Weather past 2 weeks in Kilgore, Texas, U.S.A.

Now
70 °F

Clear.


Feels Like: 68 °F
Forecast: 67 / 88 °F
Wind: No wind

Location: Gregg County Airport

Current Time: Sep 30, 2014 at 1:37:44 AM

Latest Report: Sep 30, 2014 at 12:53 AM


Visibility: 10 mi

Pressure: 29.88 "Hg

Humidity: 87%

Dew point: 66 °F

Location of KilgoreLocation

Historic Weather in Kilgore — Graph

°F

Kilgore temperature yesterday

Maximum temperature yesterday: 85 °F (at 2:53 PM)
Minimum temperature yesterday: 64 °F (at 6:53 AM)
Average temperature yesterday: 74 °F

Past Weeks' High & Low Weather Summary

 TemperatureHumidityPressure
High94 °F (Sep 21, 3:53 PM)94% (Sep 17, 7:53 AM)30.19 "Hg (Sep 17, 7:53 AM)
Low51 °F (Sep 24, 5:53 AM)29% (Sep 22, 3:53 PM)29.84 "Hg (Sep 17, 4:53 PM)
Average76 °F66%30.02 "Hg
* Reported Sep 14 11:53 PM — Sep 29 11:53 PM, Kilgore, Weather by CustomWeather, © 2014

Note: Actual official high and low records may vary slightly from our data, if they occured in-between our weather recording intervals... More about our weather records

Advertising

Kilgore weather history for previous 24 hours

 ConditionsComfort  
Time TempWeatherWind HumidityBarometerVisibility
11:53 PM
Sep 29
72 °FPassing clouds.No wind81%29.88 "Hg10 mi
10:53 PM74 °FPassing clouds.No wind79%29.89 "Hg10 mi
9:53 PM74 °FOvercast.No wind79%29.90 "Hg10 mi
8:53 PM73 °FPassing clouds.No wind79%29.90 "Hg10 mi
7:53 PM76 °FSunny.No wind74%29.89 "Hg10 mi
6:53 PM81 °FSunny.No wind60%29.88 "Hg10 mi
5:53 PM84 °FPartly sunny.7 mph53%29.88 "Hg10 mi
4:53 PM85 °FMostly cloudy.9 mph51%29.88 "Hg10 mi
3:53 PM85 °FOvercast.9 mph53%29.90 "Hg10 mi
2:53 PM85 °FScattered clouds.9 mph53%29.91 "Hg10 mi
1:53 PM83 °FBroken clouds.9 mph57%29.93 "Hg10 mi
12:53 PM82 °FPartly sunny.3 mph60%29.96 "Hg10 mi
11:53 AM81 °FBroken clouds.12 mph65%29.98 "Hg10 mi
10:53 AM79 °FScattered clouds.7 mph69%29.99 "Hg10 mi
9:53 AM76 °FScattered clouds.7 mph74%29.99 "Hg10 mi
8:53 AM71 °FScattered clouds.No wind78%29.99 "Hg10 mi
7:53 AM66 °FPassing clouds.No wind87%29.97 "Hg10 mi
6:53 AM64 °FPassing clouds.No wind87%29.96 "Hg10 mi
5:53 AM65 °FPassing clouds.No wind85%29.96 "Hg10 mi
4:53 AM66 °FPassing clouds.5 mph81%29.95 "Hg10 mi
3:53 AM65 °FPassing clouds.3 mph85%29.95 "Hg10 mi
2:53 AM65 °FPassing clouds.No wind85%29.96 "Hg10 mi
1:53 AM65 °FClear.No wind85%29.96 "Hg10 mi
Weather by CustomWeather, © 2014

See weather overviewHow to use our weather pages